Location: Unspecified
(0.0000°N, 0.0000°E)
Time: 23:36:48
(UTC+01:00)

TRAILBLAZER - Visible Passes

Search period start: 04 December 2023 00:00
Search period end: 14 December 2023 00:00
Orbit: 621 x 640 km, 64.6° (Epoch: 04 December)

Date Brightness Start Highest point End Pass type
(mag) Time Alt. Az. Time Alt. Az. Time Alt. Az.
04 Dec 5.2 05:12:38 40° SW 05:12:38 40° SW 05:16:17 10° S visible
05 Dec 7.7 03:56:30 12° ESE 03:56:30 12° ESE 03:56:53 10° SE visible
05 Dec 6.6 05:33:55 14° SW 05:33:55 14° SW 05:35:28 10° SW visible
06 Dec 7.2 04:17:43 16° SSE 04:17:43 16° SSE 04:18:38 10° SSE visible
07 Dec 7.2 04:38:49 11° S 04:38:49 11° S 04:39:05 10° S visible
